Find Qianfan Jigui 02-01

NORAD ID: 61552 Int'l Des: 2024-185 Owner: YUANX Country: CN Constellation: qianfan operational
LEOCIRCULARPOLAR

Live Position

Loading 3D Globe...

About Qianfan Jigui 02-01

Description loading...

Upcoming Passes

Passes for default location (London). Set your location on the main map for personalized predictions.

Altitude History

Loading altitude history...

Two-Line Element Set

1 61552U 24185A 26106.24245813 .00000301 00000-0 14969-3 0 9999
2 61552 88.9817 63.6464 0004419 265.7136 94.3546 14.14428815 87261
Epoch: Apr 16, 2026 • Age: 10 hours

Current Status

Altitude 862.9 km
Velocity 7.42 km/s
Sub-Earth Point -54.97°S, 169.03°E
Launch Date Oct 15, 2024
Age 1.5 years
Type internet

Technical Details

Classification Payload
Mass 267.00 kg
Dry Mass 267.00 kg
Total Mass 267.00 kg
Length 0.30 m
Diameter 3.00 m
Span 10.00 m
Shape Box+pan
Manufacturer GESIH/SECM
Bus Type Qianfan
Phase Status In Orbit
Owner/State YUANX/CN

Most Searched